AUA9115 LOWW-LGMK

Flight info

Callsign AUA9115
Flight time 1h 52m
Altitude 35000
Route ARSIN DCT NALOX DCT BABIT DCT OKTAS DCT VAL DCT REDVA UL616 KOGAT DCT TALAS UM749 ELPIS UP20 ROPOX UM749 ATV UL995 VARIX
Aircraft A321/M-SDE3FGHIRWY/LB1

Departure

Time 2026-04-24 10:43
Airport Vienna International Airport (LOWW)

Arrival

Time 2026-04-24 12:35
Airport Mykonos Island National Airport (LGMK)
Time Latitude Longitude Altitude Speed Heading
2026-04-24 10:24 48.11428 16.57131 615 ft 0 kts 206°
2026-04-24 10:39 48.11418 16.57123 610 ft 5 kts 206°
2026-04-24 10:40 48.11361 16.57083 610 ft 10 kts 206°
2026-04-24 10:40 48.11298 16.57057 610 ft 9 kts 165°
2026-04-24 10:40 48.11261 16.57119 621 ft 8 kts 119°
2026-04-24 10:40 48.11235 16.57192 622 ft 8 kts 117°
2026-04-24 10:41 48.11198 16.57241 617 ft 7 kts 181°
2026-04-24 10:41 48.11157 16.57217 619 ft 8 kts 204°
2026-04-24 10:41 48.11083 16.57165 613 ft 9 kts 205°
2026-04-24 10:41 48.11058 16.57112 622 ft 6 kts 268°
2026-04-24 10:42 48.11082 16.57019 613 ft 18 kts 295°
2026-04-24 10:42 48.11229 16.56571 617 ft 80 kts 296°
2026-04-24 10:42 48.11557 16.55561 613 ft 134 kts 295°
2026-04-24 10:42 48.12029 16.54121 733 ft 164 kts 296°
2026-04-24 10:43 48.12400 16.52585 1504 ft 160 kts 275°
2026-04-24 10:43 48.11948 16.50958 1860 ft 188 kts 230°
2026-04-24 10:43 48.10845 16.49771 2245 ft 203 kts 219°
2026-04-24 10:43 48.09596 16.48623 2508 ft 219 kts 218°
2026-04-24 10:44 48.08194 16.47490 2734 ft 242 kts 205°
2026-04-24 10:44 48.06436 16.47293 3071 ft 272 kts 174°
2026-04-24 10:44 48.04524 16.47771 3686 ft 281 kts 175°
2026-04-24 10:44 48.02575 16.48192 4468 ft 286 kts 175°
2026-04-24 10:45 48.00583 16.48572 5272 ft 290 kts 176°
2026-04-24 10:45 47.98554 16.48921 6027 ft 296 kts 178°
2026-04-24 10:45 47.96508 16.48634 6708 ft 297 kts 198°
2026-04-24 10:45 47.94481 16.47931 7363 ft 304 kts 186°
2026-04-24 10:46 47.92373 16.48288 8062 ft 309 kts 160°
2026-04-24 10:46 47.90523 16.49876 8763 ft 308 kts 136°
2026-04-24 10:46 47.88908 16.51987 9518 ft 310 kts 135°
2026-04-24 10:46 47.87286 16.54117 10222 ft 312 kts 134°
2026-04-24 10:47 47.85605 16.56321 10455 ft 333 kts 135°
2026-04-24 10:47 47.83803 16.58673 10585 ft 355 kts 135°
2026-04-24 10:47 47.81912 16.61123 10710 ft 374 kts 135°
2026-04-24 10:47 47.79892 16.63725 10837 ft 392 kts 136°
2026-04-24 10:48 47.77786 16.66427 11013 ft 407 kts 136°
2026-04-24 10:48 47.75621 16.69195 11440 ft 412 kts 136°
2026-04-24 10:48 47.73435 16.71987 11941 ft 415 kts 136°
2026-04-24 10:48 47.71242 16.74788 12439 ft 417 kts 136°
2026-04-24 10:49 47.69035 16.77607 12909 ft 419 kts 136°
2026-04-24 10:49 47.66815 16.80444 13390 ft 421 kts 136°
2026-04-24 10:49 47.64589 16.83290 13827 ft 424 kts 136°
2026-04-24 10:49 47.63104 16.85187 14102 ft 425 kts 136°
2026-04-24 10:50 47.60861 16.88052 14506 ft 426 kts 136°
2026-04-24 10:50 47.58609 16.90929 14898 ft 428 kts 135°
2026-04-24 10:50 47.56344 16.93812 15282 ft 430 kts 136°
2026-04-24 10:50 47.53325 16.97646 15814 ft 433 kts 135°
2026-04-24 10:51 47.51781 16.99604 16093 ft 434 kts 135°
2026-04-24 10:51 47.49480 17.02516 16500 ft 436 kts 135°
2026-04-24 10:51 47.47171 17.05436 16926 ft 438 kts 135°
2026-04-24 10:51 47.44853 17.08363 17365 ft 440 kts 135°
2026-04-24 10:52 47.42519 17.11311 17781 ft 442 kts 135°
2026-04-24 10:52 47.40180 17.14264 18219 ft 443 kts 135°
2026-04-24 10:52 47.37831 17.17231 18622 ft 445 kts 135°
2026-04-24 10:52 47.35469 17.20210 19001 ft 447 kts 135°
2026-04-24 10:53 47.33094 17.23194 19372 ft 449 kts 135°
2026-04-24 10:53 47.30704 17.26189 19742 ft 451 kts 136°
2026-04-24 10:53 47.28299 17.29198 20073 ft 453 kts 136°
2026-04-24 10:53 47.25923 17.32172 20416 ft 456 kts 136°
2026-04-24 10:54 47.23502 17.35204 20751 ft 458 kts 136°
2026-04-24 10:54 47.21070 17.38248 21082 ft 460 kts 136°
2026-04-24 10:54 47.18625 17.41302 21400 ft 462 kts 136°
2026-04-24 10:54 47.16166 17.44365 21741 ft 465 kts 136°
2026-04-24 10:55 47.13693 17.47441 22075 ft 467 kts 136°
2026-04-24 10:55 47.11203 17.50533 22395 ft 469 kts 136°
2026-04-24 10:55 47.08704 17.53631 22721 ft 472 kts 136°
2026-04-24 10:55 47.06188 17.56747 23034 ft 474 kts 136°
2026-04-24 10:56 47.03659 17.59879 23335 ft 476 kts 136°
2026-04-24 10:56 47.01121 17.63020 23616 ft 478 kts 136°
2026-04-24 10:56 46.98573 17.66169 23861 ft 480 kts 136°
2026-04-24 10:56 46.96015 17.69322 24118 ft 482 kts 136°
2026-04-24 10:57 46.93443 17.72486 24350 ft 483 kts 136°
2026-04-24 10:57 46.90867 17.75649 24574 ft 485 kts 136°
2026-04-24 10:57 46.88283 17.78821 24783 ft 486 kts 136°
2026-04-24 10:57 46.85692 17.81998 24971 ft 487 kts 136°
2026-04-24 10:58 46.83095 17.85181 25157 ft 488 kts 136°
2026-04-24 10:58 46.80497 17.88366 25422 ft 487 kts 136°
2026-04-24 10:58 46.77911 17.91532 25701 ft 486 kts 136°
2026-04-24 10:58 46.75317 17.94698 25979 ft 485 kts 136°
2026-04-24 10:59 46.72729 17.97846 26248 ft 484 kts 136°
2026-04-24 10:59 46.70144 18.00985 26519 ft 483 kts 136°
2026-04-24 10:59 46.67565 18.04116 26798 ft 482 kts 136°
2026-04-24 10:59 46.64990 18.07242 27070 ft 482 kts 136°
2026-04-24 11:00 46.62418 18.10363 27349 ft 481 kts 136°
2026-04-24 11:00 46.59884 18.13436 27626 ft 480 kts 136°
2026-04-24 11:00 46.57325 18.16534 27910 ft 479 kts 136°
2026-04-24 11:00 46.54766 18.19631 28189 ft 478 kts 136°
2026-04-24 11:01 46.52212 18.22719 28465 ft 477 kts 136°
2026-04-24 11:01 46.49657 18.25800 28752 ft 476 kts 136°
2026-04-24 11:01 46.47109 18.28862 29021 ft 475 kts 136°
2026-04-24 11:01 46.44558 18.31921 29302 ft 474 kts 136°
2026-04-24 11:02 46.42022 18.34962 29584 ft 473 kts 136°
2026-04-24 11:02 46.39485 18.38005 29869 ft 472 kts 136°
2026-04-24 11:02 46.36956 18.41032 30138 ft 471 kts 136°
2026-04-24 11:02 46.34428 18.44053 30376 ft 471 kts 136°
2026-04-24 11:03 46.31902 18.47072 30602 ft 470 kts 136°
2026-04-24 11:03 46.29384 18.50079 30838 ft 469 kts 136°
2026-04-24 11:03 46.26866 18.53085 31069 ft 468 kts 136°
2026-04-24 11:03 46.24353 18.56080 31304 ft 468 kts 136°
2026-04-24 11:04 46.21841 18.59069 31545 ft 467 kts 136°
2026-04-24 11:04 46.19332 18.62047 31778 ft 467 kts 136°
2026-04-24 11:04 46.16826 18.65014 31993 ft 466 kts 136°
2026-04-24 11:04 46.14318 18.67982 32214 ft 466 kts 136°
2026-04-24 11:05 46.11810 18.70945 32453 ft 465 kts 136°
2026-04-24 11:05 46.09312 18.73896 32677 ft 465 kts 136°
2026-04-24 11:05 46.06847 18.76808 32903 ft 464 kts 136°
2026-04-24 11:05 46.04350 18.79756 33133 ft 464 kts 136°
2026-04-24 11:06 46.01858 18.82694 33356 ft 463 kts 136°
2026-04-24 11:06 45.99362 18.85628 33587 ft 463 kts 136°
2026-04-24 11:06 45.96866 18.88551 33797 ft 462 kts 136°
2026-04-24 11:06 45.94361 18.91457 34010 ft 463 kts 139°
2026-04-24 11:07 45.88760 18.96145 34360 ft 469 kts 149°
2026-04-24 11:07 45.85854 18.98270 34535 ft 468 kts 149°
2026-04-24 11:07 45.82953 19.00396 34718 ft 468 kts 148°
2026-04-24 11:08 45.80058 19.02520 34894 ft 467 kts 148°
2026-04-24 11:08 45.77166 19.04644 35040 ft 467 kts 148°
2026-04-24 11:08 45.71382 19.08889 35071 ft 467 kts 148°
2026-04-24 11:09 45.65604 19.13107 35073 ft 466 kts 148°
2026-04-24 11:09 45.59821 19.17313 35076 ft 466 kts 148°
2026-04-24 11:10 45.54037 19.21526 35075 ft 466 kts 148°
2026-04-24 11:10 45.48262 19.25716 35073 ft 466 kts 148°
2026-04-24 11:11 45.42479 19.29892 35077 ft 466 kts 148°
2026-04-24 11:11 45.36738 19.34031 35075 ft 466 kts 148°
2026-04-24 11:12 45.30959 19.38192 35083 ft 465 kts 148°
2026-04-24 11:12 45.25174 19.42355 35085 ft 465 kts 148°
2026-04-24 11:13 45.19390 19.46504 35086 ft 465 kts 148°
2026-04-24 11:13 45.13613 19.50630 35085 ft 465 kts 148°
2026-04-24 11:14 45.07836 19.54760 35087 ft 464 kts 148°
2026-04-24 11:14 45.02069 19.58876 35086 ft 464 kts 148°
2026-04-24 11:15 44.96299 19.62966 35086 ft 464 kts 148°
2026-04-24 11:15 44.90456 19.66820 35083 ft 468 kts 156°
2026-04-24 11:16 44.84119 19.69205 35092 ft 472 kts 161°
2026-04-24 11:16 44.77789 19.71449 35087 ft 471 kts 161°
2026-04-24 11:17 44.71428 19.73704 35097 ft 471 kts 161°
2026-04-24 11:17 44.65067 19.75954 35097 ft 471 kts 161°
2026-04-24 11:18 44.58711 19.78209 35102 ft 471 kts 161°
2026-04-24 11:18 44.52365 19.80453 35104 ft 470 kts 161°
2026-04-24 11:19 44.46013 19.82685 35108 ft 470 kts 161°
2026-04-24 11:19 44.39669 19.84911 35101 ft 470 kts 161°
2026-04-24 11:20 44.33334 19.87145 35103 ft 469 kts 159°
2026-04-24 11:20 44.27286 19.90311 35100 ft 463 kts 153°
2026-04-24 11:21 44.21283 19.93644 35105 ft 464 kts 153°
2026-04-24 11:21 44.15329 19.96924 35100 ft 464 kts 153°
2026-04-24 11:22 44.09310 20.00226 35104 ft 463 kts 153°
2026-04-24 11:22 44.03323 20.03524 35097 ft 463 kts 153°
2026-04-24 11:23 43.97334 20.06820 35099 ft 463 kts 153°
2026-04-24 11:23 43.91348 20.10091 35097 ft 462 kts 153°
2026-04-24 11:24 43.85354 20.13363 35099 ft 462 kts 153°
2026-04-24 11:24 43.79377 20.16631 35096 ft 462 kts 153°
2026-04-24 11:25 43.73399 20.19890 35099 ft 462 kts 153°
2026-04-24 11:25 43.67421 20.23139 35093 ft 461 kts 153°
2026-04-24 11:26 43.61450 20.26377 35090 ft 461 kts 153°
2026-04-24 11:26 43.55472 20.29614 35079 ft 461 kts 153°
2026-04-24 11:27 43.49534 20.32812 35081 ft 461 kts 153°
2026-04-24 11:27 43.43551 20.36020 35078 ft 461 kts 153°
2026-04-24 11:28 43.37573 20.39240 35079 ft 461 kts 153°
2026-04-24 11:28 43.31603 20.42443 35073 ft 460 kts 153°
2026-04-24 11:29 43.25630 20.45643 35071 ft 460 kts 153°
2026-04-24 11:29 43.19709 20.48808 35062 ft 460 kts 153°
2026-04-24 11:30 43.13742 20.51981 35060 ft 460 kts 153°
2026-04-24 11:30 43.10758 20.53566 34881 ft 461 kts 153°
2026-04-24 11:30 43.07767 20.55156 35045 ft 462 kts 153°
2026-04-24 11:31 43.01725 20.58363 35058 ft 467 kts 154°
2026-04-24 11:31 42.95664 20.61572 35056 ft 467 kts 154°
2026-04-24 11:32 42.89598 20.64777 35063 ft 467 kts 154°
2026-04-24 11:32 42.83534 20.67972 35060 ft 466 kts 154°
2026-04-24 11:33 42.78501 20.70619 35057 ft 466 kts 154°
2026-04-24 11:33 42.71458 20.74315 35055 ft 466 kts 154°
2026-04-24 11:34 42.66385 20.76977 35057 ft 466 kts 154°
2026-04-24 11:34 42.60374 20.80120 35058 ft 465 kts 154°
2026-04-24 11:35 42.54327 20.83277 35062 ft 465 kts 154°
2026-04-24 11:35 42.48280 20.86428 35064 ft 465 kts 154°
2026-04-24 11:36 42.42229 20.89562 35066 ft 465 kts 154°
2026-04-24 11:36 42.36183 20.92688 35070 ft 465 kts 154°
2026-04-24 11:37 42.30145 20.95811 35064 ft 465 kts 154°
2026-04-24 11:37 42.24095 20.98945 35060 ft 466 kts 154°
2026-04-24 11:38 42.18042 21.02062 35063 ft 466 kts 154°
2026-04-24 11:38 42.12002 21.05227 35063 ft 463 kts 150°
2026-04-24 11:39 42.06497 21.09581 35062 ft 458 kts 143°
2026-04-24 11:39 42.01145 21.14118 35055 ft 458 kts 143°
2026-04-24 11:40 41.95743 21.18668 35056 ft 458 kts 143°
2026-04-24 11:40 41.90335 21.23218 35049 ft 459 kts 143°
2026-04-24 11:41 41.84927 21.27753 35051 ft 459 kts 143°
2026-04-24 11:41 41.79491 21.32315 35045 ft 460 kts 143°
2026-04-24 11:42 41.74058 21.36863 35043 ft 460 kts 143°
2026-04-24 11:42 41.68622 21.41396 35047 ft 461 kts 143°
2026-04-24 11:43 41.63176 21.45928 35042 ft 461 kts 144°
2026-04-24 11:43 41.57724 21.50455 35050 ft 462 kts 144°
2026-04-24 11:44 41.52268 21.54986 35046 ft 462 kts 144°
2026-04-24 11:44 41.46850 21.59483 35054 ft 463 kts 144°
2026-04-24 11:45 41.41370 21.64011 35046 ft 463 kts 144°
2026-04-24 11:45 41.35883 21.68537 35048 ft 463 kts 144°
2026-04-24 11:46 41.30395 21.73055 35049 ft 464 kts 144°
2026-04-24 11:46 41.24893 21.77572 35045 ft 465 kts 144°
2026-04-24 11:47 41.19381 21.82088 35048 ft 465 kts 144°
2026-04-24 11:47 41.13871 21.86602 35047 ft 465 kts 144°
2026-04-24 11:48 41.08358 21.91101 35043 ft 466 kts 145°
2026-04-24 11:48 41.02942 21.95798 35038 ft 464 kts 141°
2026-04-24 11:49 40.97684 22.00777 35035 ft 464 kts 141°
2026-04-24 11:49 40.92468 22.05729 35031 ft 465 kts 141°
2026-04-24 11:50 40.87169 22.10645 35029 ft 465 kts 142°
2026-04-24 11:50 40.81842 22.15514 35025 ft 465 kts 142°
2026-04-24 11:51 40.76521 22.20374 35022 ft 466 kts 142°
2026-04-24 11:51 40.71193 22.25248 35019 ft 466 kts 142°
2026-04-24 11:52 40.65875 22.30117 35019 ft 466 kts 142°
2026-04-24 11:52 40.60541 22.34982 35016 ft 466 kts 142°
2026-04-24 11:53 40.55203 22.39838 35015 ft 466 kts 142°
2026-04-24 11:53 40.49867 22.44691 35015 ft 466 kts 142°
2026-04-24 11:54 40.44559 22.49509 35013 ft 467 kts 142°
2026-04-24 11:54 40.39215 22.54351 35018 ft 467 kts 142°
2026-04-24 11:55 40.33856 22.59173 35018 ft 467 kts 145°
2026-04-24 11:55 40.27978 22.62896 35018 ft 471 kts 155°
2026-04-24 11:56 40.21938 22.66231 35018 ft 471 kts 155°
2026-04-24 11:56 40.15904 22.69572 35019 ft 471 kts 155°
2026-04-24 11:57 40.09871 22.72916 35025 ft 471 kts 155°
2026-04-24 11:57 40.03827 22.76251 35032 ft 471 kts 155°
2026-04-24 11:58 39.97823 22.79564 35033 ft 472 kts 155°
2026-04-24 11:58 39.91774 22.82895 35041 ft 472 kts 155°
2026-04-24 11:59 39.85723 22.86210 35048 ft 472 kts 155°
2026-04-24 11:59 39.79667 22.89530 35051 ft 472 kts 155°
2026-04-24 12:00 39.73621 22.92843 35052 ft 472 kts 155°
2026-04-24 12:00 39.67564 22.96146 35057 ft 472 kts 155°
2026-04-24 12:01 39.61513 22.99447 35056 ft 472 kts 155°
2026-04-24 12:01 39.55462 23.02737 35053 ft 471 kts 155°
2026-04-24 12:02 39.49410 23.06019 35054 ft 471 kts 155°
2026-04-24 12:02 39.43357 23.09299 35055 ft 471 kts 155°
2026-04-24 12:03 39.37311 23.12575 35052 ft 471 kts 155°
2026-04-24 12:03 39.31264 23.15848 35048 ft 470 kts 155°
2026-04-24 12:04 39.25269 23.19079 35049 ft 470 kts 155°
2026-04-24 12:04 39.19228 23.22322 35045 ft 470 kts 155°
2026-04-24 12:05 39.13198 23.25559 35042 ft 469 kts 155°
2026-04-24 12:05 39.07177 23.28791 35042 ft 469 kts 155°
2026-04-24 12:06 39.01155 23.32008 35047 ft 469 kts 156°
2026-04-24 12:06 38.95124 23.35217 35049 ft 468 kts 156°
2026-04-24 12:07 38.89107 23.38419 35051 ft 468 kts 156°
2026-04-24 12:07 38.83094 23.41624 34974 ft 468 kts 156°
2026-04-24 12:08 38.80081 23.43224 34545 ft 467 kts 156°
2026-04-24 12:08 38.77083 23.44810 34078 ft 466 kts 155°
2026-04-24 12:08 38.74084 23.46394 33551 ft 466 kts 155°
2026-04-24 12:08 38.71083 23.47981 33066 ft 466 kts 155°
2026-04-24 12:09 38.68118 23.49552 32597 ft 467 kts 155°
2026-04-24 12:09 38.65110 23.51145 32126 ft 467 kts 155°
2026-04-24 12:09 38.62111 23.52733 31663 ft 467 kts 155°
2026-04-24 12:09 38.59101 23.54325 31204 ft 468 kts 155°
2026-04-24 12:10 38.56091 23.55912 30761 ft 468 kts 155°
2026-04-24 12:10 38.53072 23.57501 30320 ft 469 kts 155°
2026-04-24 12:10 38.50054 23.59090 29848 ft 469 kts 154°
2026-04-24 12:11 38.44002 23.62272 28827 ft 470 kts 155°
2026-04-24 12:11 38.40973 23.63859 28330 ft 471 kts 155°
2026-04-24 12:11 38.37943 23.65447 27834 ft 471 kts 155°
2026-04-24 12:11 38.34909 23.67037 27362 ft 472 kts 155°
2026-04-24 12:12 38.31874 23.68627 26891 ft 472 kts 155°
2026-04-24 12:12 38.28829 23.70220 26429 ft 473 kts 155°
2026-04-24 12:12 38.25788 23.71811 25963 ft 473 kts 155°
2026-04-24 12:12 38.22735 23.73406 25527 ft 474 kts 155°
2026-04-24 12:13 38.19724 23.74975 25093 ft 475 kts 155°
2026-04-24 12:13 38.16670 23.76571 24659 ft 473 kts 149°
2026-04-24 12:13 38.14092 23.79068 24294 ft 465 kts 129°
2026-04-24 12:13 38.12327 23.82479 23959 ft 461 kts 115°
2026-04-24 12:14 38.10705 23.85994 23608 ft 463 kts 124°
2026-04-24 12:14 38.08725 23.89219 23206 ft 463 kts 126°
2026-04-24 12:14 38.06735 23.92421 22795 ft 460 kts 126°
2026-04-24 12:14 38.04754 23.95598 22149 ft 457 kts 127°
2026-04-24 12:15 38.02792 23.98736 21482 ft 452 kts 127°
2026-04-24 12:15 38.00844 24.01855 20849 ft 450 kts 127°
2026-04-24 12:15 37.98911 24.04954 20219 ft 447 kts 128°
2026-04-24 12:15 37.96983 24.08040 19600 ft 445 kts 128°
2026-04-24 12:16 37.95060 24.11106 18999 ft 443 kts 129°
2026-04-24 12:16 37.93145 24.14156 18406 ft 442 kts 129°
2026-04-24 12:16 37.91238 24.17195 17750 ft 440 kts 129°
2026-04-24 12:16 37.89338 24.20221 17075 ft 437 kts 129°
2026-04-24 12:17 37.87455 24.23217 16418 ft 433 kts 129°
2026-04-24 12:17 37.85585 24.26191 15771 ft 430 kts 129°
2026-04-24 12:17 37.83733 24.29136 15156 ft 425 kts 129°
2026-04-24 12:17 37.81901 24.32044 14543 ft 421 kts 129°
2026-04-24 12:18 37.80695 24.33953 14143 ft 418 kts 129°
2026-04-24 12:18 37.78894 24.36805 13514 ft 413 kts 128°
2026-04-24 12:18 37.77111 24.39635 12855 ft 408 kts 128°
2026-04-24 12:18 37.75366 24.42393 12329 ft 396 kts 128°
2026-04-24 12:19 37.73663 24.45077 11817 ft 385 kts 128°
2026-04-24 12:19 37.72007 24.47687 11310 ft 376 kts 128°
2026-04-24 12:19 37.70396 24.50227 10994 ft 363 kts 128°
2026-04-24 12:19 37.68848 24.52663 10795 ft 348 kts 128°
2026-04-24 12:20 37.67364 24.54995 10660 ft 332 kts 128°
2026-04-24 12:20 37.65952 24.57215 10536 ft 317 kts 128°
2026-04-24 12:20 37.64603 24.59338 10412 ft 303 kts 128°
2026-04-24 12:20 37.63310 24.61373 10221 ft 293 kts 128°
2026-04-24 12:21 37.62046 24.63361 9857 ft 289 kts 128°
2026-04-24 12:21 37.60791 24.65329 9414 ft 287 kts 127°
2026-04-24 12:21 37.59542 24.67285 8970 ft 286 kts 127°
2026-04-24 12:21 37.58298 24.69235 8537 ft 284 kts 127°
2026-04-24 12:22 37.57076 24.71150 8270 ft 277 kts 127°
2026-04-24 12:22 37.55890 24.73009 8050 ft 268 kts 127°
2026-04-24 12:22 37.54736 24.74817 7797 ft 262 kts 127°
2026-04-24 12:22 37.53597 24.76604 7537 ft 260 kts 126°
2026-04-24 12:23 37.52463 24.78382 7285 ft 260 kts 126°
2026-04-24 12:23 37.51343 24.80132 7053 ft 259 kts 126°
2026-04-24 12:23 37.50211 24.81898 6809 ft 259 kts 126°
2026-04-24 12:23 37.49076 24.83671 6563 ft 265 kts 126°
2026-04-24 12:24 37.47891 24.85527 6319 ft 276 kts 126°
2026-04-24 12:24 37.46685 24.87410 6096 ft 276 kts 126°
2026-04-24 12:24 37.45482 24.89287 6029 ft 275 kts 126°
2026-04-24 12:24 37.44277 24.91162 6044 ft 275 kts 126°
2026-04-24 12:25 37.43075 24.93035 6037 ft 275 kts 126°
2026-04-24 12:25 37.41867 24.94913 6041 ft 276 kts 126°
2026-04-24 12:25 37.40655 24.96791 6038 ft 276 kts 126°
2026-04-24 12:25 37.39448 24.98663 6033 ft 276 kts 127°
2026-04-24 12:26 37.38240 25.00537 6037 ft 275 kts 126°
2026-04-24 12:26 37.37039 25.02407 6034 ft 275 kts 126°
2026-04-24 12:26 37.35990 25.04407 6031 ft 273 kts 114°
2026-04-24 12:26 37.35156 25.06551 6035 ft 273 kts 113°
2026-04-24 12:27 37.34318 25.08691 6034 ft 272 kts 114°
2026-04-24 12:27 37.33486 25.10803 6024 ft 273 kts 114°
2026-04-24 12:27 37.32643 25.12937 5759 ft 271 kts 113°
2026-04-24 12:27 37.31810 25.15034 5445 ft 265 kts 114°
2026-04-24 12:28 37.30996 25.17085 5120 ft 260 kts 113°
2026-04-24 12:28 37.30196 25.19097 4821 ft 255 kts 112°
2026-04-24 12:28 37.29413 25.21070 4514 ft 250 kts 111°
2026-04-24 12:28 37.28645 25.23010 4199 ft 246 kts 112°
2026-04-24 12:29 37.27885 25.24928 3894 ft 244 kts 112°
2026-04-24 12:29 37.27132 25.26825 3591 ft 241 kts 112°
2026-04-24 12:29 37.26382 25.28708 3280 ft 241 kts 112°
2026-04-24 12:29 37.25749 25.30626 3043 ft 232 kts 98°
2026-04-24 12:30 37.25577 25.32570 2887 ft 218 kts 82°
2026-04-24 12:30 37.25831 25.34384 2743 ft 207 kts 67°
2026-04-24 12:30 37.26318 25.36070 2552 ft 205 kts 66°
2026-04-24 12:30 37.26797 25.37749 2375 ft 204 kts 66°
2026-04-24 12:31 37.27298 25.39412 2193 ft 202 kts 58°
2026-04-24 12:31 37.28244 25.40606 2058 ft 187 kts 25°
2026-04-24 12:31 37.29447 25.40924 1975 ft 172 kts 356°
2026-04-24 12:31 37.30574 25.40533 1981 ft 170 kts 343°
2026-04-24 12:32 37.31680 25.40039 1990 ft 168 kts 343°
2026-04-24 12:32 37.32778 25.39554 1987 ft 164 kts 343°
2026-04-24 12:32 37.33796 25.39103 1988 ft 147 kts 344°
2026-04-24 12:32 37.34734 25.38688 1988 ft 138 kts 344°
2026-04-24 12:33 37.35629 25.38295 1884 ft 135 kts 344°
2026-04-24 12:33 37.36505 25.37910 1684 ft 132 kts 344°
2026-04-24 12:33 37.37363 25.37534 1492 ft 129 kts 345°
2026-04-24 12:33 37.38207 25.37161 1304 ft 129 kts 345°
2026-04-24 12:34 37.39057 25.36789 1157 ft 130 kts 344°
2026-04-24 12:34 37.39916 25.36407 1007 ft 132 kts 343°
2026-04-24 12:34 37.40792 25.36020 807 ft 134 kts 344°
2026-04-24 12:34 37.41681 25.35625 686 ft 135 kts 342°
2026-04-24 12:35 37.42563 25.35239 502 ft 132 kts 341°
2026-04-24 12:35 37.43388 25.34881 400 ft 116 kts 341°
2026-04-24 12:35 37.43911 25.34648 404 ft 37 kts 340°
2026-04-24 12:35 37.44048 25.34588 401 ft 21 kts 341°
2026-04-24 12:36 37.44195 25.34524 402 ft 22 kts 341°
2026-04-24 12:36 37.44296 25.34512 402 ft 10 kts 330°
2026-04-24 12:36 37.44284 25.34486 401 ft 5 kts 171°
2026-04-24 12:36 37.44219 25.34513 401 ft 14 kts 160°
2026-04-24 12:37 37.44097 25.34568 401 ft 23 kts 161°
2026-04-24 12:37 37.43937 25.34637 404 ft 23 kts 161°
2026-04-24 12:37 37.43786 25.34705 402 ft 23 kts 161°
2026-04-24 12:37 37.43667 25.34701 400 ft 15 kts 199°
2026-04-24 12:38 37.43603 25.34669 402 ft 8 kts 186°
2026-04-24 12:38 37.43538 25.34695 402 ft 12 kts 158°
2026-04-24 12:38 37.43476 25.34698 402 ft 6 kts 223°
2026-04-24 12:39 37.43463 25.34651 404 ft 0 kts 253°